Location: Home
(42.5358°N, 72.7383°W)
Time: 21:51:54
(UTC-05:00)

Vanguard 2 - Pass Details

Date: 02 December 2021
Orbit: 553 x 2936 km, 32.9° (Epoch: 20 January)

Event Time Altitude Azimuth Distance (km) Brightness Sun altitude
Rises 12:26:09 0° 208° (SSW) 2,819 11.7 24.6°
Reaches altitude 10° 12:29:06 10° 183° (S) 2,089 11.6 24.4°
Maximum altitude 12:31:48 15° 148° (SSE) 1,974 10.5 24.3°
Drops below altitude 10° 12:35:00 10° 115° (ESE) 2,592 10.5 24.2°
Sets 12:39:25 0° 94° (E) 4,003 11.1 24.0°
